| 1 | Kerstin Hartmann, Christine Schweizer | 1:04:44 | 38:21 | 23:10 | 50-59 | 1 |
| 2 | Maxime Huybers, Lotte Prak | 1:06:51 | 40:56 | 22:16 | 30-39 | 1 |
| 3 | Julia Grela, Kim Welzel | 1:09:10 | 43:38 | 22:08 | 16-29 | 1 |
| 4 | Yvonne De Jong, Anna Strijker | 1:10:31 | 40:58 | 24:30 | 30-39 | 2 |
| 5 | Melissa Havik, Monique De Wit | 1:10:44 | 43:31 | 23:36 | 16-29 | 2 |
| 6 | Violette Hosselet, Saskia Brasz | 1:13:29 | 44:43 | 23:57 | 40-49 | 1 |
| 7 | Noa den Hertog, Joosje den Hertog | 1:13:35 | 43:36 | 25:34 | 16-29 | 3 |
| 8 | Henriette De Hoog, Liesbeth Lust | 1:13:37 | 42:04 | 26:50 | 40-49 | 2 |
| 9 | Zsazsa Van Zijp, Jacky Schoenaker | 1:13:45 | 44:11 | 24:51 | 16-29 | 4 |
| 10 | Stefanie Löhr, Sabrina Schulz | 1:13:51 | 42:00 | 28:00 | 30-39 | 3 |
| 11 | Laura Mager, Holly Du Plessis | 1:13:53 | 45:32 | 24:28 | 16-29 | 5 |
| 12 | Tanja Förster, Anne-Sophie Vandenbussche | 1:13:55 | 41:22 | 27:59 | 40-49 | 3 |
| 13 | Franziska Hadeler, Rebecca Hölzl | 1:14:11 | 46:59 | 23:35 | 16-29 | 6 |
| 14 | Janneke Schaars, Jill Peters | 1:14:39 | 44:06 | 25:14 | 30-39 | 4 |
| 15 | Cathrin Koch, Lisa Drescher | 1:14:45 | 46:29 | 24:37 | 30-39 | 5 |
| 16 | Maud Smeets, Mara Van Lent | 1:14:49 | 46:31 | 24:09 | 16-29 | 7 |
| 17 | Julia Rossa, Cindy Kaminski | 1:15:01 | 48:03 | 29:13 | 30-39 | 6 |
| 18 | Marleen Willeboordse, Roos Veefkind | 1:15:15 | 47:30 | 22:40 | 30-39 | 7 |
| 19 | Pauline Deham, Amélie Cougnon | 1:16:55 | 47:35 | 25:23 | 30-39 | 8 |
| 20 | Tamara Den Hartog, Sabine Bartelse | 1:17:44 | 45:46 | 26:40 | 30-39 | 9 |
| 21 | Eva Timmers, Charlot Timmers | 1:18:14 | 46:53 | 27:18 | 16-29 | 8 |
| 22 | Sandra Haanstra, Sofia Galama | 1:18:19 | 46:30 | 27:46 | 30-39 | 10 |
| 23 | Caroline Vos, Nathalie Vos | 1:18:32 | 44:56 | 26:58 | 50-59 | 2 |
| 24 | Lisbeth De Ridder, Sara Van Erdewijk | 1:19:15 | 48:23 | 25:34 | 30-39 | 11 |
| 25 | Marion Van Den Heuvel-Smaling, Jolanda Van Der Gaag-Mastenbroek | 1:19:59 | 46:35 | 28:48 | 30-39 | 12 |
| 26 | Jenny Van Der Borgh, Frouke Oonk | 1:20:05 | 51:03 | 25:01 | 30-39 | 13 |
| 27 | Natasja De Goede-Louwe, Marjolein Diepeveen | 1:20:22 | 46:32 | 28:22 | 30-39 | 14 |
| 28 | Marike Evers, Gabrielle Vd Steur | 1:21:31 | 49:36 | 26:25 | 30-39 | 15 |
| 29 | Kim Huizing, Macy Smulders | 1:21:41 | 49:55 | 26:23 | 16-29 | 9 |
| 30 | Julie Van Meeuwen-Van Der Wiele, Sophie Van Veen | 1:22:16 | 46:21 | 29:46 | 30-39 | 16 |
| 31 | Jessica Hangar, Wanda Springeling | 1:22:50 | 52:38 | 26:12 | 30-39 | 17 |
| 32 | Evelien Ranshuysen, Elselien Breman | 1:22:53 | 54:42 | 23:47 | 30-39 | 18 |
| 33 | Merel Tempelaars, Benthe Wayers | 1:23:04 | 49:54 | 27:57 | 16-29 | 10 |
| 34 | Kitty Dionisius, Iris Vlieger | 1:23:53 | 50:40 | 26:39 | 30-39 | 19 |
| 35 | Marloes Dijksterhuis, Kirsten Reininga | 1:23:53 | 51:14 | 28:00 | 30-39 | 20 |
| 36 | Maxime Vlasman, Danique Mets | 1:24:16 | 52:10 | 26:12 | 16-29 | 11 |
| 37 | Patricia Liszka, Laura Portugall | 1:24:30 | 55:33 | 23:19 | 16-29 | 12 |
| 38 | Cindy Berk, Rebecca Krüger | 1:24:43 | 50:16 | 28:08 | 30-39 | 21 |
| 39 | Rinke Wagenaar, Kirsten Steenvoort | 1:25:19 | 48:25 | 30:32 | 30-39 | 22 |
| 40 | Denice De Mul, Babs Van Starrenburg | 1:26:51 | 52:07 | 27:33 | 16-29 | 13 |
| 41 | Sanneke Van Maanen, José Oudshoorn | 1:27:02 | 52:53 | 25:52 | 16-29 | 14 |
| 42 | Katrien Reuser, Evelyn Marissink | 1:27:05 | 48:03 | 32:29 | 40-49 | 4 |
| 43 | Liza Bierma, Marrit Van Der Goot | 1:28:43 | 56:20 | 26:34 | 30-39 | 23 |
| 44 | Jet Telgen, Anne Floor | 1:29:39 | 53:28 | 29:56 | 30-39 | 24 |
| 45 | Naomi Stam, Karin Van Der Bent | 1:30:46 | 54:44 | 28:07 | 30-39 | 25 |
| 46 | Michelle Richelle, Annet Aarsen, Van | 1:31:20 | 50:44 | 32:32 | 40-49 | 5 |
| 47 | Vera Schimpf, Christine Heßberger | 1:32:05 | 54:57 | 31:13 | 30-39 | 26 |
| 48 | Diana De Bruin, Anneke Bekx | 1:32:10 | 58:39 | 27:56 | 30-39 | 27 |
| 49 | Marisca Koers, Kim Dijkhof | 1:32:26 | 57:14 | 28:07 | 30-39 | 28 |
| 50 | Renee Van Meurs, Lisette Samuelsz | 1:33:30 | 55:27 | 30:18 | 30-39 | 29 |
| 51 | Esther Ruijsbroek, Brigit Bonte | 1:33:32 | 56:52 | 30:18 | 50-59 | 3 |
| 52 | Nathalie De Luca, Silvia Bos | 1:33:42 | 59:39 | 27:11 | 40-49 | 6 |
| 53 | Famke Van Duinen, Randy Oldenburger | 1:34:55 | 58:25 | 30:15 | 16-29 | 15 |
| 54 | Jamie Hoek, Mieke Van Kampen | 1:35:02 | 58:41 | 31:53 | 30-39 | 30 |
| 55 | Nadine Jansen, Maria Christina Spätgens | 1:35:54 | 54:50 | 35:54 | 30-39 | 31 |
| 56 | Saskia Offermans, Maxime Wouters | 1:39:39 | 1:03:07 | 27:35 | 30-39 | 32 |
| 57 | Kyara Jorritsma, Lisette Dirkzwager | 1:39:39 | 57:39 | 34:55 | 16-29 | 16 |
| 58 | Charlie Van Der Linden, Faith Boer | 1:41:02 | 1:01:16 | 32:43 | 16-29 | 17 |
| 59 | Janouk Kruitbosch, Annelieke Lip | 1:41:40 | 1:01:49 | 29:55 | 16-29 | 18 |
| 60 | Amanda van de Worp, Marleen van Doorn | 1:50:51 | 1:10:20 | 31:49 | 16-29 | 19 |
| 61 | Elise Kuin, Lisa Buis | 1:52:15 | 1:39:10 | 32:17 | 16-29 | 20 |
| 62 | Laura Derks, Iris Kersten | 2:04:16 | 1:25:18 | 31:38 | 30-39 | 33 |
| 63 | Vera Hendriks, Daphne Hendriks | 2:12:20 | 2:04:45 | 30:42 | 16-29 | 21 |